FW1349 Weather Reports


Display with metric or nautical units.
time (UTC)temp
F
wind
direction
speed
MPH
gust
MPH
rain 1hr
in
rain 24hr
in
rain mn
in
humidity
%
barometer
mb
20260504000016 71 45 3.0 8.0 0.00 0.00 0.00 25
20260503235017 71 90 2.0 7.0 0.00 0.00 0.00 25
20260503234017 72 113 2.0 3.0 0.00 0.00 0.00 25
20260503233017 72 90 3.0 6.0 0.00 0.00 0.00 24
20260503232017 73 113 2.0 4.0 0.00 0.00 0.00 23
20260503231016 73 135 4.0 10.0 0.00 0.00 0.00 23
20260503230017 74 68 3.0 7.0 0.00 0.00 0.00 22
20260503225016 74 68 3.0 9.0 0.00 0.00 0.00 24
20260503224037 74 45 3.0 7.0 0.00 0.00 0.00 23
20260503223016 74 90 4.0 9.0 0.00 0.00 0.00 23
20260503222016 74 90 2.0 6.0 0.00 0.00 0.00 24
20260503221037 74 90 3.0 7.0 0.00 0.00 0.00 25
20260503220016 74 45 4.0 11.0 0.00 0.00 0.00 24
20260503215016 74 90 4.0 9.0 0.00 0.00 0.00 23
20260503214017 73 113 4.0 8.0 0.00 0.00 0.00 24
20260503213036 74 113 5.0 11.0 0.00 0.00 0.00 24
20260503212016 74 113 5.0 11.0 0.00 0.00 0.00 25
20260503211017 74 113 5.0 10.0 0.00 0.00 0.00 25
20260503210016 74 113 4.0 10.0 0.00 0.00 0.00 25
20260503205017 74 90 3.0 7.0 0.00 0.00 0.00 26
20260503204016 73 113 3.0 10.0 0.00 0.00 0.00 27
20260503203037 73 68 4.0 10.0 0.00 0.00 0.00 27
20260503202016 73 113 3.0 10.0 0.00 0.00 0.00 29
20260503201016 73 90 3.0 10.0 0.00 0.00 0.00 28
20260503200017 72 90 4.0 8.0 0.00 0.00 0.00 28
20260503195016 72 113 5.0 10.0 0.00 0.00 0.00 26
20260503194016 72 68 4.0 9.0 0.00 0.00 0.00 28
20260503193015 72 90 6.0 13.0 0.00 0.00 0.00 28
20260503192016 72 90 5.0 10.0 0.00 0.00 0.00 28
20260503191015 72 113 3.0 9.0 0.00 0.00 0.00 29
20260503190015 72 68 4.0 12.0 0.00 0.00 0.00 27
20260503185056 71 113 4.0 9.0 0.00 0.00 0.00 28
20260503184016 71 90 5.0 9.0 0.00 0.00 0.00 30
20260503183015 71 68 4.0 10.0 0.00 0.00 0.00 32
20260503182018 71 68 4.0 10.0 0.00 0.00 0.00 34
20260503181017 71 45 4.0 10.0 0.00 0.00 0.00 34
20260503180017 70 90 5.0 14.0 0.00 0.00 0.00 34
20260503175018 70 45 5.0 12.0 0.00 0.00 0.00 36
20260503174017 70 113 4.0 9.0 0.00 0.00 0.00 34
20260503173017 70 90 5.0 12.0 0.00 0.00 0.00 36
20260503172017 70 68 4.0 9.0 0.00 0.00 0.00 36
20260503171038 70 90 4.0 11.0 0.00 0.00 0.00 39
20260503131016 55 68 2.0 8.0 0.00 0.00 0.00 54
20260503081017 59 180 1.0 4.0 0.00 0.00 0.00 45
20260503072016 61 270 4.0 11.0 0.00 0.00 0.00 46
20260503071037 61 248 4.0 19.0 0.00 0.00 0.00 48
20260503054537 57 270 1.0 4.0 0.00 0.00 0.00 49
20260503053537 57 90 1.0 2.0 0.00 0.00 0.00 48
20260503052517 57 90 1.0 3.0 0.00 0.00 0.00 48
20260503051516 58 270 1.0 3.0 0.00 0.00 0.00 48
20260503050516 58 0.0 2.0 0.00 0.00 0.00 47
20260503045516 58 315 1.0 4.0 0.00 0.00 0.00 46
20260503044516 59 203 1.0 3.0 0.00 0.00 0.00 46
20260503043515 59 315 1.0 5.0 0.00 0.00 0.00 45
20260503042515 59 248 1.0 3.0 0.00 0.00 0.00 45
20260503041515 59 180 1.0 3.0 0.00 0.00 0.00 45
20260503040517 60 180 1.0 3.0 0.00 0.00 0.00 44
20260503035517 60 158 1.0 3.0 0.00 0.00 0.00 43
20260503034538 61 0.0 1.0 0.00 0.00 0.00 43
20260503033517 61 0.0 2.0 0.00 0.00 0.00 43
20260503032518 62 0.0 1.0 0.00 0.00 0.00 41
20260503031517 62 293 1.0 2.0 0.00 0.00 0.00 41
20260503030517 62 293 1.0 3.0 0.00 0.00 0.00 40
20260503025517 62 225 1.0 3.0 0.00 0.00 0.00 42
20260503024538 63 225 1.0 6.0 0.00 0.00 0.00 40
20260503023517 63 270 1.0 3.0 0.00 0.00 0.00 39
20260503022518 63 90 1.0 3.0 0.00 0.00 0.00 39
20260503021517 63 0.0 1.0 0.00 0.00 0.00 40
20260503020517 64 0.0 1.0 0.00 0.00 0.00 39
20260503015517 64 23 1.0 2.0 0.00 0.00 0.00 38
20260503014517 64 293 2.0 5.0 0.00 0.00 0.00 38
20260503013517 64 68 1.0 7.0 0.00 0.00 0.00 37
20260503012516 64 135 1.0 5.0 0.00 0.00 0.00 38
20260503011537 64 203 1.0 3.0 0.00 0.00 0.00 39
20260503010516 64 0.0 1.0 0.00 0.00 0.00 38
20260503005516 64 68 1.0 3.0 0.00 0.00 0.00 37
20260503004617 64 158 1.0 3.0 0.00 0.00 0.00 39
20260503003516 64 225 1.0 4.0 0.00 0.00 0.00 41
20260503002537 65 135 2.0 6.0 0.00 0.00 0.00 41
20260503001516 65 113 3.0 16.0 0.00 0.00 0.00 38
20260503000517 66 0 1.0 3.0 0.00 0.00 0.00 36